Simultaneous Nadir Overpasses (SNOs) Predictions

Prediction of SNOs between LANDSAT-8 and METOP-B Satellite Orbit:

Table of predicted SNOs for the next 14.0 days since TLE Epoch: 4/12/2025
Index Date (LANDSAT-8) Time (LANDSAT-8) Lat,Lon (LANDSAT-8) SZA (LANDSAT-8 ) Date (METOP-B) Time (METOP-B) Lat,Lon (METOP-B) SZA (METOP-B ) Distance(km) Time Diff (sec)
1 04/12/2025 10:48:31 -81.45,-116.95 104.88 04/12/2025 10:47:50 -81.46,-116.76 104.88 3.10 41
2 04/12/2025 11:37:57 81.46, 50.83 75.13 04/12/2025 11:38:31 81.46, 50.64 75.12 3.14 34
3 04/15/2025 06:22:44 -81.46, -50.26 105.84 04/15/2025 06:22:15 -81.46, -50.21 105.85 1.02 29
4 04/15/2025 07:12:11 81.45, 117.10 74.12 04/15/2025 07:12:56 81.46, 117.16 74.15 1.30 45
5 04/18/2025 01:56:56 -81.46, 16.08 106.82 04/18/2025 01:56:39 -81.46, 16.21 106.82 2.15 17
6 04/18/2025 02:46:22 81.46,-176.20 73.18 04/18/2025 02:47:19 81.46,-176.06 73.22 2.42 57
7 04/20/2025 21:31:08 -81.45, 82.45 107.78 04/20/2025 21:31:04 -81.46, 82.50 107.77 0.74 4
8 04/20/2025 22:20:34 81.46,-109.86 72.22 04/20/2025 22:21:44 81.46,-109.81 72.26 0.80 70
9 04/23/2025 16:15:52 81.45, -18.73 71.31 04/23/2025 16:14:48 81.46, -18.61 71.30 2.12 64



Historial Predications of SNOs between LANDSAT-8 and METOP-B
